EW5209 Weather Reports


time (UTC)temp
C
wind
direction
speed
KPH
gust
KPH
rain 1hr
cm
rain 24hr
cm
rain mn
cm
humidity
%
barometer
mb
20260509173329 29 294 3.2 14.5 0.00 0.00 0.00 59 1009.7
20260509172828 29 345 3.2 17.7 0.00 0.00 0.00 59 1009.8
20260509172328 29 8 3.2 17.7 0.00 0.00 0.00 60 1009.8
20260509171829 29 52 3.2 17.7 0.00 0.00 0.00 57 1009.8
20260509171327 29 297 3.2 17.7 0.00 0.00 0.00 59 1009.8
20260509170825 29 337 3.2 12.9 0.00 0.00 0.00 59 1009.8
20260509170326 29 328 3.2 9.7 0.00 0.00 0.00 62 1009.8
20260509165826 29 316 3.2 9.7 0.00 0.00 0.00 61 1009.9
20260509165326 29 347 3.2 9.7 0.00 0.00 0.00 61 1010.0
20260509164827 28 144 3.2 9.7 0.00 0.00 0.00 60 1010.0
20260509164327 29 340 3.2 9.7 0.00 0.00 0.00 58 1010.0
20260509163825 28 278 3.2 14.5 0.00 0.00 0.00 60 1010.0
20260509163325 28 340 1.6 14.5 0.00 0.00 0.00 61 1010.0
20260509162824 28 323 3.2 14.5 0.00 0.00 0.00 58 1010.1
20260509162325 28 59 6.4 14.5 0.00 0.00 0.00 60 1010.0
20260509161831 27 11 3.2 12.9 0.00 0.00 0.00 63 1010.1
20260509161824 27 271 6.4 14.5 0.00 0.00 0.00 60 1010.0
20260509161324 28 265 4.8 14.5 0.00 0.00 0.00 59 1010.0
20260509160325 27 279 4.8 12.9 0.00 0.00 0.00 62 1010.1
20260509155824 27 249 3.2 14.5 0.00 0.00 0.00 64 1010.1
20260509155330 27 285 4.8 14.5 0.00 0.00 0.00 64 1010.1
20260509155325 27 300 4.8 14.5 0.00 0.00 0.00 66 1010.2
20260509154943 27 297 4.8 14.5 0.00 0.00 0.00 67 1010.1
20260509153824 27 286 6.4 12.9 0.00 0.00 0.00 69 1010.0
20260509153324 27 305 4.8 12.9 0.00 0.00 0.00 69 1010.0
20260509152824 27 313 3.2 12.9 0.00 0.00 0.00 73 1009.9
20260509152325 27 287 3.2 12.9 0.00 0.00 0.00 74 1009.8
20260509151825 26 293 3.2 11.3 0.00 0.00 0.00 75 1009.8
20260509151441 26 326 3.2 11.3 0.00 0.00 0.00 77 1009.8
20260509151330 26 308 1.6 11.3 0.00 0.00 0.00 76 1009.7
20260509151325 26 53 1.6 11.3 0.00 0.00 0.00 76 1009.7
20260509150324 26 273 3.2 11.3 0.00 0.00 0.00 75 1009.8
20260509145824 26 22 3.2 9.7 0.00 0.00 0.00 78 1009.8
20260509144823 26 297 3.2 11.3 0.00 0.00 0.00 77 1009.9
20260509144324 25 344 1.6 11.3 0.00 0.00 0.00 78 1009.8
20260509143825 25 237 3.2 11.3 0.00 0.00 0.00 78 1010.0
20260509143323 25 229 6.4 11.3 0.00 0.00 0.00 78 1009.9
20260509142823 25 240 4.8 11.3 0.00 0.00 0.00 79 1009.9
20260509142318 25 323 4.8 12.9 0.00 0.00 0.00 80 1009.8
20260509141818 25 300 4.8 12.9 0.00 0.00 0.00 79 1009.9
20260509141317 25 269 6.4 12.9 0.00 0.00 0.00 81 1009.9
20260509140817 25 288 4.8 12.9 0.00 0.00 0.00 81 1010.0
20260509140320 25 271 1.6 6.4 0.00 0.00 0.00 82 1009.9
20260509140315 25 219 1.6 8.0 0.00 0.00 0.00 82 1010.0
20260509135316 25 229 0.0 3.2 0.00 0.00 0.00 83 1009.8
20260509134816 24 242 0.0 3.2 0.00 0.00 0.00 83 1009.8
20260509134318 24 254 0.0 3.2 0.00 0.00 0.00 83 1009.5
20260509134313 24 224 0.0 3.2 0.00 0.00 0.00 83 1009.6
20260509133313 24 193 0.0 3.2 0.00 0.00 0.00 83 1009.5
20260509132814 24 207 0.0 3.2 0.00 0.00 0.00 84 1009.4
20260509132315 24 177 0.0 3.2 0.00 0.00 0.00 84 1009.4
20260509131813 23 122 0.0 1.6 0.00 0.00 0.00 84 1009.4
20260509131314 23 105 0.0 0.0 0.00 0.00 0.00 83 1009.4
20260509130814 23 125 0.0 0.0 0.00 0.00 0.00 82 1009.4
20260509130315 23 215 0.0 0.0 0.00 0.00 0.00 80 1009.4
20260509125814 23 82 0.0 0.0 0.00 0.00 0.00 79 1009.5
20260509125312 23 125 0.0 0.0 0.00 0.00 0.00 74 1009.5
20260509124813 22 209 0.0 0.0 0.00 0.00 0.00 69 1009.6
20260509124309 22 188 0.0 0.0 0.00 0.00 0.00 50 1009.5
20260509123807 22 188 0.0 0.0 0.00 0.00 0.00 47 1009.5
20260509123309 22 188 4.8 0.0 0.00 0.00 0.00 43 1009.5
20260509122809 -17 0.0 0.0 0.00 0.00 0.00 1009.6
20260509122215 -17 0.0 0.0 0.00 0.00 0.00 1009.6
20260509121714 -17 0.0 0.0 0.00 0.00 0.00 1009.7
20260509121214 -17 0.0 0.0 0.00 0.00 0.00 1009.8
20260509120624 -17 0.0 0.0 0.00 0.00 0.00 1009.9
20260509120618 -17 0.0 0.0 0.00 0.00 0.00 1009.8
20260509115618 -17 0.0 0.0 0.00 0.00 0.00 1009.9
20260509115114 -17 0.0 0.0 0.00 0.00 0.00 1009.9
20260509114615 -17 0.0 0.0 0.00 0.00 0.00 1009.9
20260509114114 -17 0.0 0.0 0.00 0.00 0.00 1009.9
20260509113611 -17 0.0 0.0 0.00 0.00 0.00 1009.9
20260509113111 -17 0.0 0.0 0.00 0.00 0.00 1009.8
20260509112610 -17 0.0 0.0 0.00 0.00 0.00 1009.7
20260509112019 -17 0.0 0.0 0.00 0.00 0.00 1009.7
20260509111518 -17 0.0 0.0 0.00 0.00 0.00 1009.6
20260509111016 -17 0.0 0.0 0.00 0.00 0.00 1009.6
20260509110515 -17 0.0 0.0 0.00 0.00 0.00 1009.3
20260509110011 -17 0.0 0.0 0.00 0.00 0.00 1009.4
20260509105421 -17 0.0 0.0 0.00 0.00 0.00 1008.9
20260509105416 -17 0.0 0.0 0.00 0.00 0.00 1008.1
20260509104410 -17 244 4.8 3.2 0.00 0.00 0.00 1007.9
20260509103910 -17 244 4.8 14.5 0.00 0.00 0.00 1007.7
20260509103407 21 244 4.8 14.5 0.00 0.00 0.00 16 1007.6
20260509102906 21 244 4.8 14.5 0.00 0.00 0.00 16 1007.6
20260509102402 21 155 4.8 14.5 0.00 0.00 0.00 17 1007.4
20260509101901 21 141 3.2 12.9 0.00 0.00 0.00 20 1007.3
20260509101407 21 197 6.4 16.1 0.00 0.00 0.00 23 1007.1
20260509101401 21 132 3.2 12.9 0.00 0.00 0.00 22 1007.2
20260509100402 21 197 6.4 16.1 0.00 0.00 0.00 24 1007.2
20260509095859 21 266 4.8 16.1 0.00 0.00 0.00 24 1006.9
20260509095400 21 117 6.4 16.1 0.00 0.00 0.00 26 1006.4
20260509094900 21 124 4.8 16.1 0.00 0.00 0.00 28 1006.5
20260509094358 21 100 4.8 19.3 0.00 0.00 0.00 29 1006.6
20260509093857 21 250 6.4 19.3 0.00 0.00 0.00 29 1006.8
20260509093355 21 94 6.4 19.3 0.00 0.00 0.00 29 1006.9
20260509092856 21 119 8.0 19.3 0.00 0.00 0.00 28 1006.9
20260509092354 21 140 9.7 19.3 0.00 0.00 0.00 29 1007.0
20260509091855 21 113 6.4 19.3 0.00 0.00 0.00 30 1007.4
20260509091355 21 111 4.8 16.1 0.00 0.00 0.00 32 1007.8
20260509090855 21 115 4.8 14.5 0.00 0.00 0.00 33 1008.1
20260509090401 21 68 1.6 8.0 0.00 0.00 0.00 37 1008.5
20260509090355 21 154 3.2 14.5 0.00 0.00 0.00 35 1008.3
20260509085355 21 236 1.6 9.7 0.00 0.00 0.00 39 1008.5
20260509084856 21 134 1.6 9.7 0.00 0.00 0.00 40 1008.4
20260509084353 21 101 1.6 9.7 0.00 0.00 0.00 41 1008.5
20260509083854 21 175 1.6 9.7 0.00 0.00 0.00 43 1008.7
20260509083352 21 116 1.6 4.8 0.00 0.00 0.00 45 1008.9
20260509082855 21 165 0.0 4.8 0.00 0.00 0.00 45 1009.4
20260509082352 21 224 0.0 3.2 0.00 0.00 0.00 46 1009.6
20260509081857 21 214 1.6 4.8 0.00 0.00 0.00 45 1010.0
20260509081853 21 214 0.0 3.2 0.00 0.00 0.00 46 1009.7
20260509080853 21 207 1.6 4.8 0.00 0.00 0.00 44 1010.2
20260509080354 21 205 1.6 4.8 0.00 0.00 0.00 44 1010.5
20260509075853 20 213 1.6 4.8 0.00 0.00 0.00 43 1010.7
20260509075359 20 148 0.0 3.2 0.00 0.00 0.00 42 1010.6
20260509075354 20 173 0.0 4.8 0.00 0.00 0.00 43 1010.7
20260509074352 20 220 0.0 1.6 0.00 0.00 0.00 45 1010.6
20260509073851 20 221 0.0 0.0 0.00 0.00 0.00 49 1010.5
20260509073351 20 221 0.0 0.0 0.00 0.00 0.00 54 1010.3
20260509072852 20 221 0.0 0.0 0.00 0.00 0.00 56 1010.2
20260509072350 20 221 0.0 0.0 0.00 0.00 0.00 62 1010.1
20260509071856 20 221 0.0 0.0 0.00 0.00 0.00 61 1010.1
20260509071852 20 221 0.0 0.0 0.00 0.00 0.00 61 1010.0
20260509071510 20 221 0.0 0.0 0.00 0.00 0.00 65 1010.0
20260509070350 20 221 0.0 0.0 0.00 0.00 0.00 64 1010.0
20260509065851 21 221 0.0 0.0 0.00 0.00 0.00 66 1010.1
20260509065351 21 228 0.0 0.0 0.00 0.00 0.00 67 1009.9
20260509064858 21 114 0.0 0.0 0.00 0.00 0.00 76 1010.4
20260509064851 21 238 0.0 0.0 0.00 0.00 0.00 67 1010.1
20260509064352 20 167 0.0 0.0 0.00 0.00 0.00 69 1010.0
20260509063851 20 114 0.0 0.0 0.00 0.00 0.00 72 1010.5
20260509063350 20 114 0.0 0.0 0.00 0.00 0.00 73 1010.5
20260509062350 21 114 0.0 0.0 0.00 0.00 0.00 77 1010.3
20260509061852 21 114 0.0 0.0 0.00 0.00 0.00 79 1010.2
20260509061350 21 114 0.0 3.2 0.00 0.00 0.00 80 1010.3
20260509060849 21 114 0.0 3.2 0.00 0.00 0.00 81 1010.4
20260509060346 21 114 0.0 3.2 0.00 0.00 0.00 81 1010.2
20260509055850 21 121 0.0 3.2 0.00 0.00 0.00 82 1009.8
20260509055845 21 114 0.0 3.2 0.00 0.00 0.00 82 1010.1
20260509054844 21 129 0.0 3.2 0.00 0.00 0.00 82 1009.8
20260509054840 21 122 0.0 3.2 0.00 0.00 0.00 83 1010.0
20260509053837 21 148 1.6 6.4 0.00 0.00 0.00 83 1009.8
20260509053339 21 136 3.2 8.0 0.00 0.00 0.00 83 1009.8
20260509053334 21 129 3.2 8.0 0.00 0.00 0.00 83 1009.9
20260509052332 22 133 3.2 8.0 0.00 0.00 0.00 83 1009.8
20260509051830 22 120 3.2 8.0 0.00 0.00 0.00 83 1009.7
20260509051331 22 103 3.2 8.0 0.00 0.00 0.00 83 1009.7
20260509050836 22 117 1.6 6.4 0.00 0.00 0.00 83 1010.1
20260509050830 22 121 1.6 8.0 0.00 0.00 0.00 83 1009.8
20260509050446 22 109 3.2 6.4 0.00 0.00 0.00 83 1010.1
20260509045827 22 119 3.2 6.4 0.00 0.00 0.00 83 1010.1
20260509044828 22 113 1.6 3.2 0.00 0.00 0.00 83 1010.3
20260509044327 22 113 0.0 1.6 0.00 0.00 0.00 83 1010.4
20260509043828 22 113 0.0 0.0 0.00 0.00 0.00 83 1010.4
20260509043327 22 113 0.0 0.0 0.00 0.00 0.00 83 1010.2
20260509042833 22 113 0.0 0.0 0.00 0.00 0.00 83 1010.2
20260509042827 22 113 0.0 0.0 0.00 0.00 0.00 83 1010.2
20260509041827 22 113 0.0 0.0 0.00 0.00 0.00 83 1010.2
20260509041327 22 113 0.0 0.0 0.00 0.00 0.00 83 1010.2
20260509040828 22 113 0.0 0.0 0.00 0.00 0.00 83 1010.1
20260509040326 22 113 0.0 0.0 0.00 0.00 0.00 83 1010.0
20260509035825 22 113 0.0 0.0 0.00 0.00 0.00 83 1009.9
20260509035325 22 113 0.0 0.0 0.00 0.00 0.00 83 1009.9
20260509034831 22 113 0.0 0.0 0.00 0.00 0.00 83 1010.0
20260509034825 22 113 0.0 0.0 0.00 0.00 0.00 83 1009.9
20260509033825 22 113 0.0 0.0 0.00 0.00 0.00 83 1009.9
20260509033326 22 113 0.0 0.0 0.00 0.00 0.00 83 1009.8
20260509032825 22 113 0.0 0.0 0.00 0.00 0.00 83 1009.6
20260509032325 22 113 0.0 6.4 0.00 0.00 0.00 83 1009.5
20260509031825 22 113 0.0 6.4 0.00 0.00 0.00 83 1009.5
20260509031324 22 113 1.6 6.4 0.00 0.00 0.00 83 1009.4
20260509030829 22 130 0.0 3.2 0.00 0.00 0.00 83 1009.2
20260509030824 22 113 1.6 6.4 0.00 0.00 0.00 83 1009.3
20260509030443 22 133 0.0 0.0 0.00 0.00 0.00 83 1009.1
20260509025943 22 132 0.0 0.0 0.00 0.00 0.00 83 1009.1
20260509024824 22 133 0.0 0.0 0.00 0.00 0.00 83 1009.2
20260509024324 22 133 0.0 0.0 0.00 0.00 0.00 83 1009.2
20260509023824 22 132 0.0 0.0 0.00 0.00 0.00 83 1009.2
20260509023328 22 132 0.0 0.0 0.00 0.00 0.00 82 1009.1
20260509023323 22 133 0.0 0.0 0.00 0.00 0.00 83 1009.2
20260509022321 22 132 0.0 0.0 0.00 0.00 0.00 82 1009.1
20260509021822 22 133 0.0 0.0 0.00 0.00 0.00 82 1009.0
20260509021327 22 132 0.0 0.0 0.00 0.00 0.00 82 1009.0
20260509021321 22 133 0.0 0.0 0.00 0.00 0.00 82 1009.0
20260509020940 22 132 0.0 0.0 0.00 0.00 0.00 82 1008.8
20260509015822 22 133 0.0 0.0 0.00 0.00 0.00 82 1008.7
20260509015319 22 131 0.0 0.0 0.00 0.00 0.00 82 1008.7
20260509014819 22 131 0.0 1.6 0.00 0.00 0.00 82 1008.8
20260509014318 23 131 0.0 3.2 0.00 0.00 0.00 82 1008.6
20260509013824 23 131 0.0 6.4 0.00 0.00 0.00 82 1008.5
20260509013820 23 131 0.0 3.2 0.00 0.00 0.00 82 1008.6
20260509012818 23 131 0.0 6.4 0.00 0.00 0.00 81 1008.5
20260509012317 23 131 1.6 6.4 0.00 0.00 0.00 81 1008.4
20260509011818 23 128 0.0 6.4 0.00 0.00 0.00 81 1008.4
20260509011321 23 99 0.0 4.8 0.00 0.00 0.00 81 1008.2
20260509011315 23 115 0.0 4.8 0.00 0.00 0.00 81 1008.3
20260509010319 23 109 0.0 4.8 0.00 0.00 0.00 80 1008.0
20260509010314 23 120 1.6 4.8 0.00 0.00 0.00 80 1008.1
20260509005316 23 119 0.0 4.8 0.00 0.00 0.00 80 1007.9
20260509004815 23 110 1.6 4.8 0.00 0.00 0.00 80 1007.8
20260509004315 23 109 0.0 4.8 0.00 0.00 0.00 79 1007.8
20260509003816 23 119 0.0 3.2 0.00 0.00 0.00 79 1007.9
20260509003315 23 124 0.0 3.2 0.00 0.00 0.00 78 1007.9
20260509002821 24 123 0.0 8.0 0.00 0.00 0.00 77 1008.0
20260509002815 24 124 0.0 4.8 0.00 0.00 0.00 78 1008.0
20260509001814 24 103 1.6 8.0 0.00 0.00 0.00 77 1008.0
20260509001315 24 116 1.6 8.0 0.00 0.00 0.00 77 1008.1
20260509000816 24 114 3.2 8.0 0.00 0.00 0.00 77 1008.1
20260509000315 24 116 3.2 8.0 0.00 0.00 0.00 77 1008.1
20260508235815 24 110 1.6 8.0 0.00 0.00 0.00 76 1008.1
20260508235314 24 127 3.2 8.0 0.00 0.00 0.00 77 1008.1
20260508234821 24 120 1.6 8.0 0.00 0.00 0.00 76 1008.1
20260508234815 24 122 1.6 8.0 0.00 0.00 0.00 76 1008.1
20260508233816 24 72 3.2 9.7 0.00 0.00 0.00 76 1008.1
20260508233316 24 135 3.2 9.7 0.00 0.00 0.00 75 1008.2
20260508232816 24 96 1.6 9.7 0.00 0.00 0.00 74 1008.2
20260508232316 25 117 3.2 9.7 0.00 0.00 0.00 75 1008.2
20260508231814 24 103 3.2 9.7 0.00 0.00 0.00 75 1008.2
20260508231310 24 128 3.2 9.7 0.00 0.00 0.00 75 1008.2
20260508230812 24 103 3.2 9.7 0.00 0.00 0.00 75 1008.2
20260508230312 24 129 3.2 9.7 0.00 0.00 0.00 74 1008.3
20260508230308 25 110 1.6 9.7 0.00 0.00 0.00 73 1008.4
20260508225927 25 105 1.6 9.7 0.00 0.00 0.00 72 1008.4
20260508225427 25 145 1.6 9.7 0.00 0.00 0.00 74 1008.5
20260508224303 24 149 1.6 9.7 0.00 0.00 0.00 74 1008.4
20260508223801 24 95 1.6 9.7 0.00 0.00 0.00 74 1008.5
20260508223258 24 207 3.2 11.3 0.00 0.00 0.00 73 1008.5
20260508222758 24 131 3.2 11.3 0.00 0.00 0.00 74 1008.5
20260508222259 24 243 3.2 11.3 0.00 0.00 0.00 74 1008.5
20260508221759 24 209 3.2 11.3 0.00 0.00 0.00 75 1008.4
20260508221300 23 211 4.8 11.3 0.00 0.00 0.00 75 1008.4
20260508220758 23 105 3.2 11.3 0.00 0.00 0.00 75 1008.3
20260508220259 23 204 3.2 17.7 0.00 0.00 0.00 77 1008.2
20260508215804 22 98 6.4 22.5 0.00 0.00 0.00 77 1008.2
20260508215759 23 124 4.8 17.7 0.00 0.00 0.00 78 1008.3
20260508214800 22 122 8.0 22.5 0.00 0.00 0.00 77 1007.9
20260508214256 22 121 9.7 22.5 0.00 0.00 0.00 79 1007.8
20260508213757 21 127 9.7 22.5 0.00 0.00 0.00 80 1007.8
20260508213258 21 115 11.3 22.5 0.00 0.00 0.00 81 1008.0
20260508212756 21 122 8.0 22.5 0.00 0.00 0.00 81 1008.3
20260508212257 21 134 3.2 12.9 0.00 0.00 0.00 83 1008.8
20260508211757 20 103 1.6 6.4 0.00 0.00 0.00 83 1009.2
20260508211256 20 120 0.0 6.4 0.00 0.00 0.00 82 1009.5
20260508210757 20 238 0.0 0.0 0.00 0.00 0.00 82 1010.5
20260508210258 20 238 0.0 6.4 0.00 0.00 0.00 81 1010.6
20260508205757 21 232 0.0 6.4 0.00 0.00 0.00 79 1010.6
20260508205257 21 225 1.6 6.4 0.00 0.00 0.00 77 1010.3
20260508204756 21 188 1.6 8.0 0.00 0.00 0.00 76 1010.1
20260508204256 21 196 3.2 8.0 0.00 0.00 0.00 76 1010.6
20260508203756 21 227 3.2 8.0 0.00 0.00 0.00 76 1010.7
20260508203255 21 212 1.6 8.0 0.00 0.00 0.00 75 1010.7
20260508202755 21 229 0.0 6.4 0.00 0.00 0.00 74 1010.5
20260508202300 21 191 0.0 11.3 0.00 0.00 0.00 74 1010.6
20260508202255 21 127 0.0 6.4 0.00 0.00 0.00 73 1010.2
20260508201254 22 205 1.6 11.3 0.00 0.00 0.00 72 1010.7
20260508200755 22 117 3.2 11.3 0.00 0.00 0.00 71 1010.3
20260508200255 22 211 3.2 11.3 0.00 0.00 0.00 71 1010.9
20260508195755 22 131 3.2 11.3 0.00 0.00 0.00 70 1010.7
20260508195254 23 110 3.2 11.3 0.00 0.00 0.00 69 1010.6
20260508194754 23 130 3.2 11.3 0.00 0.00 0.00 68 1010.3
20260508194259 23 116 1.6 11.3 0.00 0.00 0.00 67 1010.5
20260508194255 23 177 3.2 9.7 0.00 0.00 0.00 67 1010.4
20260508193252 23 143 1.6 11.3 0.00 0.00 0.00 68 1010.5
20260508192758 23 131 3.2 11.3 0.00 0.00 0.00 69 1010.5
20260508192753 23 193 3.2 11.3 0.00 0.00 0.00 68 1010.5
20260508191752 23 244 3.2 11.3 0.00 0.00 0.00 69 1010.6
20260508191254 23 140 3.2 11.3 0.00 0.00 0.00 69 1010.8
20260508190752 23 113 1.6 11.3 0.00 0.00 0.00 70 1011.0
20260508190252 23 232 1.6 8.0 0.00 0.00 0.00 71 1011.0
20260508185753 22 136 1.6 8.0 0.00 0.00 0.00 71 1011.0
20260508185250 22 215 1.6 8.0 0.00 0.00 0.00 70 1011.2
20260508184751 22 202 0.0 4.8 0.00 0.00 0.00 71 1011.2
20260508184250 22 169 0.0 6.4 0.00 0.00 0.00 71 1011.3
20260508183750 23 153 0.0 6.4 0.00 0.00 0.00 71 1011.4
20260508183250 23 162 0.0 8.0 0.00 0.00 0.00 71 1011.4
20260508182752 23 243 1.6 8.0 0.00 0.00 0.00 72 1011.4
20260508182255 23 199 1.6 9.7 0.00 0.00 0.00 71 1011.5
20260508182249 23 117 1.6 8.0 0.00 0.00 0.00 71 1011.5
20260508181246 23 113 1.6 9.7 0.00 0.00 0.00 73 1011.4
20260508180747 23 143 0.0 11.3 0.00 0.00 0.00 72 1011.5
20260508180244 22 100 1.6 11.3 0.00 0.00 0.00 72 1011.8
20260508175744 22 127 3.2 14.5 0.00 0.00 0.00 72 1011.9
20260508175244 22 108 3.2 14.5 0.00 0.00 0.00 71 1012.0
20260508174742 22 102 3.2 14.5 0.00 0.00 0.00 72 1012.0
20260508174243 22 120 3.2 14.5 0.00 0.00 0.00 70 1012.0